Weather History for Spirit of St Louis, MO

Change the Weather History Date:

Friday, March 1, 2013

  Actual Average Record
Temperature  
Mean Temperature 31 °F -  
Max Temperature 34 °F 46 °F 78 °F (2006)
Min Temperature 28 °F 27 °F 21 °F (2005)
Degree Days  
Heating Degree Days 34    
Moisture  
Dew Point 26 °F    
Average Humidity 82    
Maximum Humidity 93    
Minimum Humidity 74    
Precipitation  
Precipitation 0.01 in - - ()
Sea Level Pressure  
Sea Level Pressure 30.15 in    
Wind  
Wind Speed 8 mph (NW)    
Max Wind Speed 14 mph    
Max Gust Speed -    
Visibility 5 miles    
Events Snow    
Averages and records for this station are not official NWS values.
T = Trace of Precipitation, MM = Missing Value Source: NWS Daily Summary

Daily Weather History Graph

Daily Weather History Graph

Search for Another Location

Airport:

Trip Planner

Search our weather history database for the weather conditions in past years. The results will help you decide how hot, cold, wet, or windy it might be!

Date:

Astronomy

Mar. 01, 2013 Rise Set
Actual Time 6:34 AM CST 5:55 PM CST
Civil Twilight 6:07 AM CST 6:22 PM CST
Nautical Twilight 5:37 AM CST 6:53 PM CST
Astronomical Twilight 5:06 AM CST 7:24 PM CST
Moon 10:25 PM CST (3/1) 8:24 AM CST (3/1)
Length of Visible Light 12h 14m
Length of Day
11h 21m
Waning Gibbous, 83% of the Moon is Illuminated
Mar 1
Waning Gibbous
Mar 4
Last Quarter
Mar 11
New
Mar 19
First Quarter
Mar 27
Full

Hourly Weather History & Observations

Time (CST) Temp. Windchill Dew Point Humidity Pressure Visibility Wind Dir Wind Speed Gust Speed Precip Events Conditions
12:02 AM 30.2 °F 22.6 °F 28.4 °F 93% 30.10 in 3.0 mi WNW 8.1 mph - 0.00 in Snow Light Snow
12:35 AM 30.2 °F 23.4 °F 28.4 °F 93% 30.09 in 2.5 mi WNW 6.9 mph - 0.00 in Snow Light Snow
12:43 AM 30.2 °F 23.4 °F 28.4 °F 93% 30.10 in 3.0 mi WNW 6.9 mph - 0.00 in Snow Light Snow
12:50 AM 30.2 °F 22.6 °F 28.4 °F 93% 30.09 in 2.5 mi WNW 8.1 mph - 0.00 in Snow Light Snow
12:54 AM 30.9 °F 23.5 °F 28.0 °F 89% 30.12 in 2.5 mi WNW 8.1 mph - 0.00 in Snow Light Snow
1:01 AM 30.2 °F 22.6 °F 28.4 °F 93% 30.09 in 2.5 mi WNW 8.1 mph - 0.00 in Snow Light Snow
1:23 AM 30.2 °F 23.4 °F 28.4 °F 93% 30.10 in 3.0 mi WNW 6.9 mph - 0.00 in Snow Light Snow
1:54 AM 30.9 °F 25.2 °F 27.0 °F 85% 30.12 in 4.0 mi WNW 5.8 mph - 0.00 in Snow Light Snow
2:54 AM 30.9 °F 25.2 °F 27.0 °F 85% 30.11 in 5.0 mi WNW 5.8 mph - 0.00 in Snow Light Snow
3:54 AM 30.9 °F 24.3 °F 26.1 °F 82% 30.11 in 5.0 mi WNW 6.9 mph - 0.00 in Snow Light Snow
4:54 AM 30.0 °F 22.4 °F 26.1 °F 85% 30.12 in 3.0 mi WNW 8.1 mph - 0.00 in Snow Light Snow
5:20 AM 30.2 °F 23.4 °F 26.6 °F 86% 30.09 in 2.5 mi West 6.9 mph - 0.00 in Snow Light Snow
5:54 AM 28.9 °F 21.1 °F 26.1 °F 89% 30.12 in 2.5 mi WNW 8.1 mph - 0.01 in Snow Light Snow
6:23 AM 28.4 °F 20.4 °F 26.6 °F 93% 30.10 in 1.8 mi WNW 8.1 mph - 0.00 in Snow Light Snow
6:36 AM 28.4 °F 22.2 °F 26.6 °F 93% 30.10 in 2.0 mi WNW 5.8 mph - 0.00 in Snow Light Snow
6:49 AM 28.4 °F 21.2 °F 26.6 °F 93% 30.10 in 1.5 mi WNW 6.9 mph - N/A Snow Light Snow
6:54 AM 28.9 °F 21.1 °F 26.1 °F 89% 30.13 in 1.5 mi WNW 8.1 mph - 0.00 in Snow Light Snow
7:08 AM 28.4 °F 19.7 °F 26.6 °F 93% 30.10 in 2.0 mi WNW 9.2 mph - 0.00 in Snow Light Snow
7:27 AM 28.4 °F 20.4 °F 24.8 °F 86% 30.11 in 2.5 mi WNW 8.1 mph - 0.00 in Snow Light Snow
7:52 AM 30.2 °F 22.6 °F 26.6 °F 86% 30.12 in 2.5 mi WNW 8.1 mph - 0.00 in Snow Light Snow
7:54 AM 30.0 °F 23.2 °F 26.1 °F 85% 30.14 in 2.5 mi WNW 6.9 mph - 0.00 in Snow Light Snow
8:54 AM 30.0 °F 21.1 °F 26.1 °F 85% 30.15 in 2.5 mi WNW 10.4 mph - 0.00 in Snow Light Snow
9:54 AM 30.9 °F 22.8 °F 26.1 °F 82% 30.16 in 4.0 mi NW 9.2 mph - 0.00 in Snow Light Snow
9:57 AM 30.2 °F 21.9 °F 26.6 °F 86% 30.13 in 5.0 mi NNW 9.2 mph - 0.00 in Snow Light Snow
10:36 AM 32.0 °F 24.2 °F 26.6 °F 80% 30.14 in 2.5 mi NW 9.2 mph - 0.00 in Snow Light Snow
10:54 AM 32.0 °F 24.2 °F 26.1 °F 79% 30.16 in 4.0 mi NW 9.2 mph - 0.00 in Snow Light Snow
11:54 AM 33.1 °F 26.1 °F 26.1 °F 75% 30.16 in 7.0 mi NNW 8.1 mph - 0.00 in   Overcast
12:54 PM 33.1 °F 26.1 °F 26.1 °F 75% 30.15 in 10.0 mi NNW 8.1 mph - N/A   Overcast
1:54 PM 33.1 °F 27.7 °F 27.0 °F 78% 30.14 in 9.0 mi North 5.8 mph - N/A   Overcast
2:54 PM 34.0 °F 26.6 °F 27.0 °F 75% 30.15 in 4.0 mi NNW 9.2 mph - 0.00 in Snow Light Snow
3:04 PM 33.8 °F 26.4 °F 26.6 °F 75% 30.12 in 2.5 mi NNW 9.2 mph - 0.00 in Snow Light Snow
3:44 PM 33.8 °F 26.4 °F 26.6 °F 75% 30.13 in 2.5 mi North 9.2 mph - 0.00 in   Haze
3:54 PM 34.0 °F 27.2 °F 27.0 °F 75% 30.16 in 3.0 mi North 8.1 mph - 0.00 in Snow Light Snow
4:54 PM 32.0 °F 25.6 °F 26.1 °F 79% 30.18 in 10.0 mi North 6.9 mph - 0.00 in   Overcast
5:03 PM 32.0 °F 23.6 °F 24.8 °F 75% 30.15 in 10.0 mi NNW 10.4 mph - N/A   Overcast
5:12 PM 32.0 °F 23.0 °F 24.8 °F 75% 30.15 in 10.0 mi North 11.5 mph - N/A   Overcast
5:54 PM 30.9 °F 24.3 °F 26.1 °F 82% 30.20 in 4.0 mi NW 6.9 mph - 0.00 in Snow Light Snow
6:54 PM 30.9 °F 22.2 °F 25.0 °F 79% 30.21 in 10.0 mi NNW 10.4 mph - N/A   Overcast
7:13 PM 30.2 °F 21.3 °F 23.0 °F 75% 30.19 in 10.0 mi NNW 10.4 mph - N/A   Overcast
7:54 PM 30.0 °F 20.5 °F 23.0 °F 75% 30.22 in 10.0 mi NNW 11.5 mph - N/A   Overcast
8:31 PM 30.2 °F 21.3 °F 23.0 °F 75% 30.19 in 10.0 mi NNW 10.4 mph - N/A   Overcast
8:54 PM 30.0 °F 21.7 °F 23.0 °F 75% 30.23 in 10.0 mi North 9.2 mph - N/A   Overcast
9:18 PM 30.2 °F 20.8 °F 23.0 °F 75% 30.20 in 10.0 mi NNW 11.5 mph - N/A   Overcast
9:42 PM 30.2 °F 21.3 °F 23.0 °F 75% 30.20 in 10.0 mi NNW 10.4 mph - N/A   Overcast
9:54 PM 28.9 °F 20.4 °F 23.0 °F 78% 30.23 in 7.0 mi NNW 9.2 mph - 0.00 in Snow Light Snow
10:11 PM 28.4 °F 18.5 °F 21.2 °F 74% 30.20 in 9.0 mi North 11.5 mph - 0.00 in   Overcast
10:54 PM 28.9 °F 18.2 °F 21.9 °F 75% 30.23 in 10.0 mi NNW 13.8 mph - 0.00 in   Overcast
11:09 PM 28.4 °F 18.0 °F 21.2 °F 74% 30.21 in 10.0 mi NNW 12.7 mph - N/A   Overcast
11:54 PM 28.9 °F 19.2 °F 21.9 °F 75% 30.23 in 10.0 mi NNW 11.5 mph - N/A   Overcast